Flag for San Marino Weather past 2 weeks in San Marino, San Marino

Now
75 °F

Passing clouds.


Feels Like: 75 °F
Forecast: 58 / 80 °F
Wind: 7 mph from West

Location: Rimini Airport

Current Time: Aug 3, 2015 at 9:46:14 AM

Latest Report: Aug 3, 2015 at 8:45 AM


Visibility: N/A

Pressure: 30.01 "Hg (27.80 "Hg at 666m altitude)

Humidity: 83%

Dew point: 70 °F

Location of San MarinoLocation

Historic Weather in San Marino — Graph

°F

San Marino temperature yesterday

Maximum temperature yesterday: 79 °F (at 12:45 PM)
Minimum temperature yesterday: 72 °F (at 2:15 AM)
Average temperature yesterday: 76 °F

Past Weeks' High & Low Weather Summary

 TemperatureHumidityPressure
High93 °F (Jul 19, 1:15 PM)89% (Jul 22, 4:15 AM)30.04 "Hg (Jul 22, 4:15 AM)
Low68 °F (Aug 1, 4:45 AM)36% (Jul 22, 8:45 PM)29.65 "Hg (Jul 27, 4:15 PM)
Average83 °F66%29.82 "Hg
* Reported Jul 19 8:15 AM — Aug 3 8:15 AM, San Marino, Weather by CustomWeather, © 2015

Note: Actual official high and low records may vary slightly from our data, if they occured in-between our weather recording intervals... More about our weather records

Advertising

San Marino weather history for previous 24 hours

 ConditionsComfort  
Time TempWeatherWind HumidityBarometerVisibility
8:15 AM
Mon, Aug 3
73 °FSunny.5 mph78%30.01 "Hg10 mi
7:45 AM73 °FSunny.No wind83%30.01 "Hg10 mi
7:15 AM72 °FSunny.1 mph88%30.01 "Hg10 mi
6:45 AM72 °FClear.No wind83%29.98 "Hg10 mi
6:15 AM72 °FClear.No wind88%29.98 "Hg10 mi
5:45 AM72 °FClear.No wind88%29.98 "Hg10 mi
5:15 AM72 °FClear.No wind88%29.98 "Hg10 mi
4:45 AM73 °FClear.No wind83%30.01 "Hg10 mi
4:15 AM73 °FClear.3 mph83%30.01 "Hg10 mi
3:45 AM73 °FClear.5 mph83%30.01 "Hg10 mi
3:15 AM73 °FClear.3 mph89%30.01 "Hg10 mi
2:45 AM77 °FClear.2 mph83%30.01 "Hg10 mi
2:15 AM75 °FClear.2 mph83%30.01 "Hg10 mi
1:15 AM75 °FPassing clouds.No wind89%30.01 "HgN/A
12:45 AM77 °FPassing clouds.2 mph83%30.01 "HgN/A
12:15 AM77 °FPassing clouds.No wind83%30.01 "HgN/A
11:45 PM
Sun, Aug 2
77 °FPassing clouds.No wind83%30.01 "HgN/A
11:15 PM77 °FPassing clouds.2 mph83%30.01 "HgN/A
10:45 PM79 °FPassing clouds.2 mph79%30.01 "HgN/A
10:15 PM79 °FClear.2 mph79%30.01 "Hg10 mi
9:45 PM77 °FClear.2 mph79%29.98 "Hg10 mi
9:15 PM77 °FSunny.2 mph79%29.98 "Hg10 mi
8:45 PM79 °FSunny.3 mph74%29.98 "Hg10 mi
8:15 PM79 °FSunny.3 mph74%30.01 "Hg10 mi
7:45 PM79 °FPassing clouds.3 mph74%30.01 "HgN/A
7:15 PM79 °FPassing clouds.2 mph74%30.01 "HgN/A
6:45 PM79 °FPassing clouds.6 mph74%30.01 "HgN/A
6:15 PM79 °FPassing clouds.7 mph74%30.01 "HgN/A
5:45 PM79 °FPassing clouds.7 mph74%30.01 "HgN/A
5:15 PM79 °FScattered clouds.3 mph74%30.01 "HgN/A
4:45 PM79 °FScattered clouds.5 mph74%30.01 "HgN/A
4:15 PM79 °FScattered clouds.3 mph74%30.04 "HgN/A
3:45 PM79 °FScattered clouds.5 mph70%30.04 "HgN/A
3:15 PM79 °FScattered clouds.5 mph70%30.04 "HgN/A
2:45 PM79 °FScattered clouds.6 mph70%30.04 "HgN/A
2:15 PM79 °FScattered clouds.7 mph70%30.04 "HgN/A
1:45 PM79 °FScattered clouds.5 mph70%30.04 "HgN/A
1:15 PM79 °FScattered clouds.3 mph70%30.04 "HgN/A
12:45 PM79 °FScattered clouds.3 mph70%30.01 "HgN/A
12:15 PM77 °FScattered clouds.5 mph69%30.01 "HgN/A
11:45 AM77 °FScattered clouds.6 mph69%30.01 "HgN/A
11:15 AM77 °FScattered clouds.2 mph69%30.01 "HgN/A
10:45 AM77 °FScattered clouds.2 mph69%30.01 "Hg4 mi
10:15 AM75 °FScattered clouds.2 mph74%30.01 "Hg4 mi
9:45 AM75 °FScattered clouds.7 mph78%30.01 "Hg4 mi
9:15 AM73 °FScattered clouds.7 mph78%30.01 "Hg4 mi
Weather by CustomWeather, © 2015

See weather overviewHow to use our weather pages